Regional Weather Roundup
Issued by NWS

Home | Current Version | Previous Version | Graphics & Text | Print | Product List | Glossary On
Versions: 1 2 3 4 5 6 7 8 9 10 11 12 13 14 15 16 17 18 19 20 21 22 23 24 25 26 27 28 29 30 31 32 33 34 35 36 37 38 39 40 41 42 43 44 45 46 47 48 49 50
000
ASUS43 KOAX 282010
RWRNE

WEATHER ROUNDUP FOR NEBRASKA
NATIONAL WEATHER SERVICE OMAHA NE
300 PM CDT FRI APR 28 2017

NOTES: SATELLITE DATA IS BEING USED TO AUGMENT CLOUD COVER ABOVE
       12000 FEET.
       "FAIR" INDICATES FEW OR NO CLOUDS BELOW 12,000 FEET WITH NO
       SIGNIFICANT WEATHER AND/OR OBSTRUCTIONS TO VISIBILITY.

  * THESE STATIONS DO NOT REPORT WEATHER SUCH AS RAIN...SNOW OR FOG.

NEZ001>004-019>022-054>056-282100-
NEBRASKA PANHANDLE

CITY           SKY/WX    TMP DP  RH WIND       PRES   REMARKS
SCOTTSBLUFF    LGT SNOW  34  31  88 E15       29.89R FOG     WCI  24
ALLIANCE       LGT SNOW  34  31  88 E21       29.89R VSB 1   WCI  22
CHADRON        CLOUDY    41  33  73 E9        29.94R
KIMBALL        LGT SNOW  34  32  94 E20G28    29.82R WCI  22
SIDNEY         LGT SNOW  34  31  88 E20G26    29.84R FOG     WCI  23
$$

NEZ057>060-069>072-079>082-282100-
SOUTHWEST NEBRASKA

CITY           SKY/WX    TMP DP  RH WIND       PRES   REMARKS
NORTH PLATTE   CLOUDY    38  34  85 NE23G32   29.87R WCI  27
IMPERIAL       CLOUDY    39  34  82 E22       29.82R WCI  29
LEXINGTON      CLOUDY    37  34  89 NE21      29.85R WCI  26
MCCOOK         CLOUDY    39  36  89 NE22      29.82R WCI  29
OGALLALA       CLOUDY    37  35  92 E17G25    29.87R WCI  27
$$

NEZ005>010-023>029-035>040-094-282100-
NORTH CENTRAL NEBRASKA

CITY           SKY/WX    TMP DP  RH WIND       PRES   REMARKS
VALENTINE      CLOUDY    46  26  45 NE17G24   29.95R
AINSWORTH      CLOUDY    43  32  64 NE13G22   29.94R
BROKEN BOW     CLOUDY    37  35  92 NE20G28   29.88R WCI  27
O`NEILL        CLOUDY    44  28  54 NE12      29.93R
ORD            LGT RAIN  38  34  85 NE18      29.89R WCI  28
THEDFORD       CLOUDY    39  35  87 E14G20    29.91S WCI  31
$$

NEZ041-046>049-061>064-073>077-083>087-282100-
SOUTH CENTRAL NEBRASKA

CITY           SKY/WX    TMP DP  RH WIND       PRES   REMARKS
GRAND ISLAND   LGT RAIN  37  37 100 NE22      29.85R FOG     WCI  26
AURORA         CLOUDY    38  38  97 NE20      29.83R FOG     WCI  28
HASTINGS       LGT RAIN  38  36  92 NE23      29.84R FOG     WCI  27
HEBRON         CLOUDY    41  40  97 NE15      29.78R FOG
HOLDREGE       CLOUDY    37  35  93 NE20      29.83R WCI  26
KEARNEY *      CLOUDY    37  34  87 N22       29.84R WCI  27
YORK           MOSUNNY   39  39 100 NE17      29.83R FOG     WCI  30
$$

NEZ011>018-030>034-042>045-282100-
NORTHEAST NEBRASKA

CITY           SKY/WX    TMP DP  RH WIND       PRES   REMARKS
NORFOLK        LGT RAIN  39  34  82 N17G25    29.88R WCI  30
ALBION         DRIZZLE   38  34  86 N13G22    29.89R WCI  30
BLAIR          CLOUDY    40  38  93 NE12G18   29.83R FOG     WCI  33
FREMONT        LGT RAIN  40  39  97 NE13G20   29.86R WCI  32
TEKAMAH        LGT RAIN  40  37  89 NE24      29.87R FOG     WCI  29
WAYNE          LGT RAIN  42  35  75 NE20      29.90R
$$

NEZ050>053-065>068-078-088>093-282100-
SOUTHEAST NEBRASKA

CITY           SKY/WX    TMP DP  RH WIND       PRES   REMARKS
LINCOLN        CLOUDY    42  40  92 NE13G21   29.83R FOG
OMAHA EPPLEY   DRIZZLE   41  36  82 NE12      29.85R
BEATRICE       CLOUDY    42  40  93 NE17G26   29.76F FOG
FALLS CITY     CLOUDY    44  42  93 NE13      29.75R
NEBRASKA CITY  CLOUDY    39  39 100 NE17      29.79R WCI  30
PLATTSMOUTH    CLOUDY    40  36  87 NE13G21   29.82R FOG     WCI  32
$$

NEZ044-045-051>053-067-282100-
OMAHA AREA

CITY           SKY/WX    TMP DP  RH WIND       PRES   REMARKS
OMAHA EPPLEY   DRIZZLE   41  36  82 NE12      29.85R
BLAIR          CLOUDY    40  38  93 NE12G18   29.83R FOG     WCI  33
FREMONT        LGT RAIN  40  39  97 NE13G20   29.86R WCI  32
MILLARD        LGT RAIN  42  40  91 NE7       29.83S
OFFUTT AFB     LGT RAIN  40  37  88 NE14G23   29.82R FOG     WCI  32
PLATTSMOUTH    CLOUDY    40  36  87 NE13G21   29.82R FOG     WCI  32
WAHOO          CLOUDY    40  38  93 NE15      29.85R FOG     WCI  32
$$



USA.gov is the U.S. government's official web portal to all federal, state and local government web resources and services.